シューメーカー-レヴィ第2彗星

137P/Shoemaker-Levy 2 (2028)

English version
Home page
Updated on May 23, 2026

---------------------------------------------------------------------

・ プロフィール

・ 写真集

・ 軌道要素

Epoch 2028 Aug. 17.0 TT = JDT 2462000.5                                         
T 2028 July 29.69194 TT                                 Rudenko                 
q   1.9363579            (2000.0)            P               Q                  
n   0.10225199     Peri.  141.12051     +0.96835650     -0.24026452             
a   4.5292003      Node   232.91320     +0.20259661     +0.91476147             
e   0.5724724      Incl.    4.85521     +0.14574052     +0.32478365             
P   9.64                                                                        
From 1205 observations 1990 Sept. 16-2021 Apr. 17, mean residual 0".9.          

・ 星図

・ 光度変化

        H = 14.0  G = 0.15

---------------------------------------------------------------------

軌道要素はM.P.E.C. 2021-J28に掲載されたものです。
星図はステラナビゲータ Ver.11 (アストロアーツ) で作成したものです。
光度グラフはComet for Windowsで作成したものです。

---------------------------------------------------------------------

Copyright(C) Seiichi Yoshida (comet@aerith.net). All rights reserved.